[[{"header":{"parameterUnit":"m.s-1","parameterCategory":1,"la1":30.2991,"la2":30.254,"lo1":-89.0895,"lo2":-89.0444,"dy":0.0017,"dx":0.0017,"nx":28,"ny":28,"refTime":"2025-11-24T09:00:00:Z","depth":0,"parameterNumber":2,"parameterNumberName":"U-component_of_WINDS"},"data":[0,0,0,0,0,0,0,0,0,0,0,0,0,0,0,0,0,0,0,0,0,0,0,0,0,0,0,0,0,0,0,0,0,0,0,0,0,0,0,0,0,0,0,0,0,0,0,0,0,0,0,0,0,0,0,0,0,0,-0.6283,-0.6283,0,-0.627,-0.627,-0.6269,-0.625,-0.625,-0.6249,-0.6249,-0.6236,-0.6236,-0.6236,0,0,0,0,0,0,0,0,0,0,0,0,0,-0.6293,-0.6293,-0.6283,-0.6283,-0.6283,-0.627,-0.627,-0.6269,-0.625,-0.625,-0.6249,-0.6249,-0.6236,-0.6236,-0.6236,0,0,0,0,0,0,0,0,0,0,0,0,0,-0.6285,-0.6293,-0.6283,-0.6272,-0.627,-0.627,-0.627,-0.6269,-0.625,-0.625,-0.6249,-0.6249,-0.6236,-0.6236,-0.6236,-0.6246,0,0,-0.6236,-0.6236,0,0,0,0,0,0,0,0,-0.6285,-0.6285,-0.6273,-0.6272,-0.6271,-0.6261,-0.6268,-0.6262,-0.625,-0.6258,-0.6249,-0.6248,-0.6245,-0.6244,-0.6243,-0.6245,-0.6245,-0.6236,-0.6236,-0.6236,-0.6236,0,0,0,0,0,0,0,-0.6286,-0.6285,-0.6278,-0.6273,-0.6272,-0.6267,-0.6266,-0.6267,-0.6254,-0.6257,-0.6256,-0.6254,-0.6244,-0.6243,-0.6242,-0.6244,-0.6236,-0.6236,-0.6236,-0.6236,-0.6255,-0.6256,0,0,0,0,0,0,-0.6288,-0.6286,-0.6278,-0.6277,-0.6277,-0.6268,-0.6266,-0.6265,-0.6254,-0.6252,-0.6255,-0.6254,-0.6243,-0.6242,-0.6242,-0.6253,-0.6236,-0.6236,-0.6236,-0.6255,-0.6256,-0.6256,0,0,0,0,0,0,-0.6288,-0.6288,-0.6279,-0.6281,-0.628,-0.6268,-0.6267,-0.6265,-0.6263,-0.6253,-0.625,-0.6256,-0.6243,-0.6242,-0.6245,-0.6252,-0.6236,-0.6236,-0.6254,-0.6255,-0.6256,-0.6276,0,0,0,0,0,0,-0.6289,-0.6288,-0.6291,-0.6281,-0.628,-0.6282,-0.6267,-0.6265,-0.6263,-0.6261,-0.6253,-0.6251,-0.6242,-0.6245,-0.6245,-0.6252,-0.6236,-0.6254,-0.6255,-0.6256,-0.6275,-0.6277,-0.628,0,0,0,0,0,-0.6289,-0.6297,-0.6292,-0.6291,-0.6284,-0.6283,-0.6282,-0.6271,-0.6264,-0.6268,-0.6261,-0.6251,-0.6252,-0.6246,-0.6245,-0.6252,-0.6253,-0.6254,-0.6256,-0.6273,-0.6277,-0.628,0,0,0,0,0,0,-0.6309,-0.6296,-0.6289,-0.6294,-0.629,-0.6279,-0.6283,-0.6275,-0.6273,-0.6271,-0.6259,-0.6257,-0.6262,-0.6257,-0.6251,-0.6262,-0.6251,-0.6252,-0.6265,-0.6268,-0.627,-0.6272,-0.6236,0,0,0,0,0,-0.6313,-0.6313,-0.6302,-0.6308,-0.6306,-0.6295,-0.6294,-0.6287,-0.6282,-0.628,-0.6273,-0.6269,-0.6268,-0.6267,-0.6266,-0.6274,-0.6272,-0.6279,-0.6281,-0.6283,-0.6285,-0.6289,-0.6292,-0.626,-0.626,-0.626,0,0,-0.6323,-0.6316,-0.6317,-0.6312,-0.6307,-0.6308,-0.6294,-0.6295,-0.6296,-0.628,-0.6283,-0.6278,-0.6272,-0.6278,-0.628,-0.6274,-0.6293,-0.6285,-0.6287,-0.6287,-0.6291,-0.6294,-0.6297,-0.6261,-0.6261,-0.6261,0,0,-0.6342,-0.6337,-0.6341,-0.6337,-0.633,-0.6323,-0.6324,-0.6315,-0.6312,-0.6314,-0.6303,-0.6303,-0.6302,-0.6299,-0.6297,-0.6315,-0.6306,-0.6315,-0.6329,-0.6333,-0.6336,-0.6338,-0.6345,-0.6348,-0.6316,-0.6316,-0.6316,0,-0.6356,-0.6356,-0.6344,-0.6347,-0.6345,-0.6331,-0.6336,-0.6332,-0.6326,-0.6325,-0.6318,-0.6317,-0.6312,-0.6317,-0.6322,-0.632,-0.6322,-0.6316,-0.6336,-0.6338,-0.634,-0.6347,-0.6349,-0.6317,-0.6317,-0.6317,-0.6317,0,-0.6373,-0.6374,-0.6378,-0.6372,-0.6371,-0.6374,-0.6364,-0.6364,-0.6357,-0.635,-0.6354,-0.6347,-0.6345,-0.6345,-0.6338,-0.635,-0.6347,-0.6338,-0.6327,-0.6344,-0.6351,-0.6353,-0.6319,-0.6319,-0.6318,-0.6318,0,0,-0.6404,-0.6392,-0.6393,-0.6391,-0.6383,-0.6383,-0.6386,-0.6384,-0.6385,-0.6381,-0.6383,-0.6383,-0.6375,-0.6373,-0.6366,-0.637,-0.6385,-0.6361,-0.636,-0.6366,-0.6399,-0.6405,-0.6408,-0.6379,-0.638,-0.638,-0.6399,0,-0.6421,-0.6426,-0.6416,-0.6423,-0.6424,-0.641,-0.6413,-0.6409,-0.6403,-0.6403,-0.6397,-0.6397,-0.6387,-0.6386,-0.6389,-0.6383,-0.6392,-0.6381,-0.6382,-0.6383,-0.6385,-0.6412,-0.6419,-0.6437,-0.6402,-0.6402,-0.6402,0,-0.6442,-0.644,-0.6447,-0.6439,-0.6439,-0.6442,-0.6439,-0.6439,-0.6434,-0.643,-0.6428,-0.6419,-0.6422,-0.6411,-0.6415,-0.6408,-0.6408,-0.6405,-0.6406,-0.6406,-0.6394,-0.6413,-0.6442,-0.6446,-0.6406,-0.6405,-0.6405,0,-0.6465,-0.6463,-0.6467,-0.6465,-0.6456,-0.6459,-0.6455,-0.6449,-0.6449,-0.6446,-0.6446,-0.6444,-0.6443,-0.6442,-0.6433,-0.6426,-0.6439,-0.6427,-0.6436,-0.6436,-0.6439,-0.6439,-0.647,-0.6438,-0.6438,-0.6438,-0.6438,0,-0.6486,-0.6491,-0.6477,-0.648,-0.6486,-0.6474,-0.648,-0.6475,-0.6471,-0.6473,-0.6461,-0.6463,-0.6451,-0.6452,-0.6445,-0.645,-0.6449,-0.6446,-0.6444,-0.6448,-0.6448,-0.6448,-0.6447,-0.6439,-0.6439,-0.6439,-0.6439,0,-0.6512,-0.6503,-0.6507,-0.6498,-0.6496,-0.6501,-0.6493,-0.6496,-0.6489,-0.6492,-0.6492,-0.6482,-0.6482,-0.6473,-0.6472,-0.6467,-0.6476,-0.6471,-0.6477,-0.6476,-0.6486,-0.6486,-0.6518,-0.6522,-0.6487,-0.6488,-0.6488,0,-0.6527,-0.6531,-0.6522,-0.6522,-0.6519,-0.652,-0.6519,-0.6508,-0.6508,-0.6503,-0.6506,-0.6506,-0.6505,-0.6507,-0.6499,-0.6499,-0.6494,-0.6506,-0.6494,-0.6498,-0.6496,-0.6496,-0.6497,-0.6509,-0.6509,-0.6509,-0.651,0,-0.6554,-0.6549,-0.6549,-0.6547,-0.6546,-0.6544,-0.6541,-0.6542,-0.653,-0.6531,-0.6531,-0.6531,-0.6529,-0.6529,-0.6527,-0.6524,-0.6515,-0.6513,-0.6515,-0.6519,-0.6523,-0.6522,-0.6485,-0.6513,-0.6512,-0.6512,-0.6512,-0.6512,-0.6575,-0.6578,-0.6573,-0.6573,-0.6569,-0.6567,-0.6569,-0.6563,-0.6563,-0.6561,-0.6555,-0.6557,-0.6552,-0.6548,-0.6546,-0.6547,-0.6542,-0.6544,-0.6545,-0.6547,-0.6549,-0.6522,-0.6546,-0.6546,-0.6546,-0.6546,-0.6546,0,-0.6602,-0.6598,-0.6598,-0.6595,-0.6595,-0.6586,-0.6583,-0.6584,-0.6585,-0.6582,-0.6581,-0.6582,-0.6582,-0.6575,-0.6574,-0.6577,-0.6573,-0.6577,-0.6577,-0.6577,-0.6553,-0.6552,-0.658,-0.658,-0.658,-0.658,-0.658,-0.658,-0.6617,-0.6621,-0.6616,-0.662,-0.6615,-0.6617,-0.6616,-0.6614,-0.6611,-0.6612,-0.6612,-0.6608,-0.6603,-0.6602,-0.6602,-0.66,-0.66,-0.6606,-0.6603,-0.6581,-0.6578,-0.6575,-0.6574,-0.6606,-0.6606,-0.6626,-0.6626,-0.6626]},{"header":{"parameterUnit":"m.s-1","parameterCategory":1,"la1":30.2991,"la2":30.254,"lo1":-89.0895,"lo2":-89.0444,"dy":0.0017,"dx":0.0017,"nx":28,"ny":28,"refTime":"2025-11-24T09:00:00:Z","depth":0,"parameterNumber":3,"parameterNumberName":"V-component_of_WINDS"},"data":[0,0,0,0,0,0,0,0,0,0,0,0,0,0,0,0,0,0,0,0,0,0,0,0,0,0,0,0,0,0,0,0,0,0,0,0,0,0,0,0,0,0,0,0,0,0,0,0,0,0,0,0,0,0,0,0,0,0,4.8202,4.8203,0,4.8355,4.8356,4.8358,4.8371,4.837,4.8368,4.8366,4.8525,4.8531,4.8536,0,0,0,0,0,0,0,0,0,0,0,0,0,4.7926,4.7931,4.8202,4.8204,4.8206,4.8354,4.8356,4.8358,4.8372,4.837,4.8368,4.8366,4.8523,4.853,4.8537,0,0,0,0,0,0,0,0,0,0,0,0,0,4.8059,4.7932,4.8201,4.823,4.8234,4.8354,4.8356,4.8359,4.8372,4.837,4.8367,4.8365,4.8521,4.8529,4.8538,4.864,0,0,4.8564,4.8568,0,0,0,0,0,0,0,0,4.8051,4.8069,4.8224,4.8228,4.8233,4.8341,4.8317,4.8453,4.8373,4.832,4.8366,4.8364,4.8466,4.8479,4.8513,4.8648,4.8654,4.8565,4.857,4.8574,4.8576,0,0,0,0,0,0,0,4.8042,4.8062,4.8262,4.8226,4.8232,4.8237,4.8253,4.8343,4.8405,4.8324,4.8325,4.8343,4.8468,4.8505,4.8517,4.8657,4.8565,4.8572,4.8578,4.8581,4.8888,4.8891,0,0,0,0,0,0,4.8027,4.8055,4.8257,4.8267,4.8134,4.8244,4.8262,4.8309,4.8404,4.8416,4.8345,4.8343,4.8491,4.8507,4.8523,4.8652,4.8574,4.8582,4.8587,4.8885,4.8888,4.8892,0,0,0,0,0,0,4.8021,4.8045,4.8251,4.8161,4.8188,4.8251,4.8304,4.8313,4.835,4.842,4.8431,4.8371,4.849,4.851,4.8612,4.8658,4.8586,4.8594,4.8881,4.8886,4.889,4.891,0,0,0,0,0,0,4.8013,4.8042,4.8081,4.8162,4.8193,4.8337,4.8307,4.8318,4.8365,4.8364,4.8447,4.8459,4.849,4.8599,4.862,4.8668,4.86,4.8878,4.8883,4.8889,4.8906,4.8915,4.8922,0,0,0,0,0,4.8003,4.808,4.8083,4.8107,4.8242,4.8339,4.8357,4.839,4.8368,4.8409,4.8454,4.8456,4.8649,4.8609,4.8633,4.8685,4.8875,4.8882,4.8888,4.8902,4.8913,4.8922,0,0,0,0,0,0,4.8003,4.8091,4.8095,4.82,4.8262,4.8341,4.8393,4.84,4.847,4.8466,4.8505,4.8524,4.8625,4.8665,4.8619,4.8791,4.876,4.8772,4.8762,4.8773,4.8781,4.877,4.8607,0,0,0,0,0,4.8015,4.8085,4.8159,4.8245,4.8276,4.8329,4.8373,4.8393,4.8459,4.8486,4.8538,4.8603,4.8679,4.8727,4.88,4.8911,4.8931,4.8958,4.8967,4.8973,4.8984,4.9049,4.9063,4.8914,4.8914,4.8914,0,0,4.8041,4.8098,4.814,4.8247,4.8297,4.8371,4.8351,4.8429,4.8486,4.8498,4.8598,4.8638,4.8714,4.8821,4.8871,4.8857,4.903,4.8982,4.8986,4.8994,4.9058,4.9072,4.9084,4.8918,4.8917,4.8917,0,0,4.8127,4.8175,4.8254,4.8306,4.8382,4.8418,4.8436,4.8515,4.8543,4.8644,4.8655,4.8723,4.8851,4.8906,4.895,4.906,4.9066,4.9082,4.9127,4.919,4.9202,4.9213,4.9255,4.927,4.9092,4.9092,4.9092,0,4.815,4.8261,4.8294,4.8374,4.8422,4.8436,4.8518,4.8566,4.8663,4.8696,4.8679,4.8843,4.8894,4.9017,4.9044,4.9078,4.9103,4.9074,4.9197,4.9208,4.9219,4.926,4.9276,4.9094,4.9094,4.9093,4.9093,0,4.8287,4.8365,4.8419,4.8513,4.8567,4.8647,4.8694,4.8745,4.8761,4.8799,4.8903,4.8966,4.9053,4.9083,4.9099,4.9209,4.9199,4.9189,4.9159,4.9234,4.9274,4.929,4.9096,4.9096,4.9095,4.9095,0,0,4.8377,4.849,4.851,4.8554,4.8641,4.8702,4.8784,4.887,4.8915,4.8981,4.9053,4.9162,4.9155,4.9205,4.9228,4.9283,4.9371,4.9267,4.927,4.9287,4.95,4.9509,4.9526,4.9374,4.9377,4.938,4.9495,0,4.8476,4.8621,4.8655,4.8781,4.8855,4.887,4.8942,4.9005,4.9042,4.9112,4.9154,4.9233,4.9215,4.9246,4.9301,4.9348,4.9415,4.934,4.9445,4.9448,4.9428,4.9546,4.9555,4.966,4.951,4.9512,4.9514,0,4.861,4.8681,4.8814,4.8894,4.8927,4.899,4.9074,4.9139,4.9211,4.9235,4.9293,4.931,4.9399,4.9363,4.9487,4.9436,4.948,4.9511,4.9515,4.9529,4.9487,4.9566,4.9694,4.9711,4.9538,4.9536,4.9535,0,4.8666,4.8795,4.8892,4.8929,4.9024,4.907,4.9112,4.9181,4.9232,4.9305,4.9339,4.942,4.9466,4.953,4.9571,4.954,4.9693,4.9659,4.9718,4.9718,4.9752,4.9749,4.9892,4.9775,4.9775,4.9775,4.9774,0,4.8774,4.8856,4.892,4.898,4.9073,4.9112,4.9203,4.9246,4.9308,4.9378,4.9396,4.9462,4.951,4.9584,4.9616,4.9716,4.9736,4.976,4.9768,4.976,4.9757,4.9791,4.9786,4.9779,4.9778,4.9777,4.9776,0,4.8854,4.8899,4.9007,4.9089,4.9112,4.9177,4.9248,4.9309,4.9347,4.9437,4.946,4.9521,4.9609,4.9655,4.9764,4.9786,4.99,4.9902,4.9876,4.988,4.9937,4.9932,5.011,5.0136,4.9998,4.9999,5.0,0,4.8921,4.8985,4.9074,4.9123,4.9166,4.9243,4.9295,4.9336,4.939,4.9478,4.9529,4.9617,4.9691,4.983,4.9886,4.997,4.9977,5.0033,4.999,4.9981,4.9982,4.9979,4.9988,5.0042,5.0043,5.0044,5.0045,0,4.9037,4.9057,4.9131,4.9214,4.9276,4.9343,4.941,4.9449,4.9501,4.9561,4.9651,4.9708,4.9821,4.991,4.9999,5.0044,5.0055,5.0058,5.0077,5.0071,5.0054,5.0068,4.99,5.0054,5.0053,5.0053,5.0052,5.0052,4.9115,4.9174,4.9247,4.933,4.9384,4.9447,4.9509,4.9556,4.9631,4.9726,4.9746,4.9842,4.9916,5.0037,5.0085,5.0162,5.0151,5.0177,5.0184,5.0191,5.0195,5.0039,5.0178,5.0177,5.0177,5.0177,5.0177,0,4.9235,4.9283,4.9359,4.9452,4.9519,4.9521,4.9596,4.9652,4.9736,4.9803,4.9876,4.9981,5.0068,5.0131,5.022,5.027,5.0278,5.0293,5.0291,5.0302,5.0198,5.0175,5.0285,5.0285,5.0285,5.0285,5.0285,5.0285,4.9305,4.9406,4.9435,4.9565,4.9612,4.9707,4.975,4.9809,4.9863,4.998,5.0052,5.0092,5.0159,5.0254,5.0335,5.0351,5.0385,5.04,5.0418,5.032,5.0309,5.0298,5.0276,5.0406,5.0406,5.0515,5.0516,5.0517]}]]